• Join FlightAware (Why Join?)
  • Login
  • US Flag 
02:50AM EDT


 

Airport Tracker/Info


-or-


 

Live Flight TrackerFlight Track Log ✈ N57AM ✈ 10-May-2013 ✈ 14A - KEYE

Flight Track Log - Related Links

Times and Time Zones

All times are in EDT time to prevent confusion due to time zone crossing. See the N57AM flight status page for this flight to view local times or setup timezone preferences in your user account.

Time Position Orientation Groundspeed Altitude Reporting Facility
EDT Latitude Longitude Course Direction KTS MPH feet Rate Location/Type
09:07AM 35.7517 -81.0936 314° West 154 177 4,100  Level Atlanta Center
09:08AM 35.7733 -81.1208 314° West 152 175 4,500 480 Climbing Atlanta Center
09:09AM 35.8075 -81.1531 323° Northwest 156 180 5,000 480 Climbing Atlanta Center
09:10AM 35.8417 -81.1903 319° Northwest 150 173 5,600 540 Climbing Atlanta Center
09:11AM 35.8697 -81.2278 313° West 150 173 6,100 420 Climbing Atlanta Center
09:12AM 35.8936 -81.2678 306° West 145 167 6,500 420 Climbing Atlanta Center
09:13AM 35.9175 -81.3106 305° West 145 167 7,000 420 Climbing Atlanta Center
09:14AM 35.9411 -81.3483 308° West 150 173 7,400 420 Climbing Atlanta Center
09:15AM 35.9669 -81.3886 308° West 150 173 7,900 300 Climbing Atlanta Center
09:16AM 35.9908 -81.4314 305° West 150 173 8,000  Climbing Atlanta Center
09:17AM 36.0169 -81.4767 305° West 160 184 7,900 -60 Descending Atlanta Center
09:18AM 36.0469 -81.5219 309° West 165 190 7,900  Level Atlanta Center
09:19AM 36.0750 -81.5647 309° West 170 196 8,000  Climbing Atlanta Center
09:20AM 36.1031 -81.6103 307° West 170 196 8,000 -60 Level Atlanta Center
09:21AM 36.1289 -81.6531 307° West 170 196 7,900 -60 Descending Atlanta Center
09:22AM 36.1569 -81.6961 309° West 170 196 7,900  Level Atlanta Center
09:23AM 36.1847 -81.7364 311° West 170 196 8,000  Climbing Atlanta Center
09:24AM 36.2147 -81.7792 311° West 170 196 7,900 -60 Descending Atlanta Center
09:25AM 36.2469 -81.8222 313° West 170 196 7,900  Level Atlanta Center
09:26AM 36.2767 -81.8650 311° West 165 190 7,900  Level Atlanta Center
09:27AM 36.3067 -81.9106 309° West 165 190 7,900  Level Atlanta Center
09:28AM 36.3367 -81.9561 309° West 165 190 7,900  Level Atlanta Center
09:29AM 36.3625 -82.0019 305° West 170 196 7,900  Level Atlanta Center
09:31AM 36.4131 -82.0839 308° West  Level FlightAware Approximate
09:32AM 36.4383 -82.1303 308° West 163 188 7,900  Level Indianapolis Center
09:33AM 36.4747 -82.1803 312° West 165 190 7,900  Level Indianapolis Center
09:34AM 36.5100 -82.2186 319° Northwest 167 192 8,000  Climbing Indianapolis Center
09:35AM 36.5433 -82.2575 317° Northwest 165 190 7,900 -60 Descending Indianapolis Center
09:36AM 36.5747 -82.2939 317° Northwest 157 181 7,900  Level Indianapolis Center
09:37AM 36.6064 -82.3317 316° Northwest 156 180 7,900  Level Indianapolis Center
09:38AM 36.6383 -82.3692 317° Northwest 158 182 7,900  Level Indianapolis Center
09:39AM 36.6750 -82.4131 316° Northwest 157 181 7,900  Level Indianapolis Center
09:40AM 36.7072 -82.4497 318° Northwest 157 181 7,900  Level Indianapolis Center
09:41AM 36.7389 -82.4872 317° Northwest 156 180 7,900  Level Indianapolis Center
09:42AM 36.7703 -82.5247 316° Northwest 157 181 7,900  Level Indianapolis Center
09:43AM 36.8028 -82.5625 317° Northwest 158 182 8,000  Climbing Indianapolis Center
09:44AM 36.8356 -82.6011 317° Northwest 160 184 8,000  Level Indianapolis Center
09:45AM 36.8742 -82.6456 317° Northwest 162 186 8,000  Level Indianapolis Center
09:46AM 36.9069 -82.6861 315° West 163 188 8,000  Level Indianapolis Center
09:47AM 36.9400 -82.7239 318° Northwest 164 189 8,000  Level Indianapolis Center
09:48AM 36.9722 -82.7622 316° Northwest 162 186 8,000  Level Indianapolis Center
09:49AM 37.0106 -82.8083 316° Northwest 164 189 8,000  Level Indianapolis Center
09:50AM 37.0436 -82.8483 316° Northwest 165 190 8,000  Level Indianapolis Center
09:51AM 37.0764 -82.8869 317° Northwest 164 189 8,000  Level Indianapolis Center
09:52AM 37.1092 -82.9258 317° Northwest 163 188 8,000  Level Indianapolis Center
09:53AM 37.1422 -82.9656 316° Northwest 164 189 8,000  Level Indianapolis Center
09:54AM 37.1808 -83.0117 316° Northwest 164 189 8,000  Level Indianapolis Center
09:55AM 37.2139 -83.0511 316° Northwest 164 189 8,000  Level Indianapolis Center
09:56AM 37.2475 -83.0911 317° Northwest 165 190 8,000  Level Indianapolis Center
09:57AM 37.2806 -83.1308 316° Northwest 165 190 8,000  Level Indianapolis Center
09:58AM 37.3131 -83.1706 316° Northwest 164 189 8,000  Level Indianapolis Center
09:59AM 37.3519 -83.2169 317° Northwest 164 189 8,100  Climbing Indianapolis Center
10:00AM 37.3856 -83.2572 316° Northwest 165 190 8,000 -60 Descending Indianapolis Center
10:01AM 37.4203 -83.2967 318° Northwest 167 192 8,000  Level Indianapolis Center
10:03AM 37.4569 -83.3361 320° Northwest 170 196 8,100  Climbing Indianapolis Center
10:04AM 37.4919 -83.3750 319° Northwest 170 196 8,000  Descending Indianapolis Center
10:05AM 37.5278 -83.4147 319° Northwest 170 196 8,100  Climbing Indianapolis Center
10:06AM 37.5708 -83.4614 319° Northwest 172 198 8,000 -60 Descending Indianapolis Center
10:07AM 37.6069 -83.5011 319° Northwest 172 198 8,000  Level Indianapolis Center
10:08AM 37.6431 -83.5417 318° Northwest 173 199 8,000  Level Indianapolis Center
10:09AM 37.6792 -83.5814 319° Northwest 172 198 8,000  Level Indianapolis Center
10:10AM 37.7153 -83.6219 318° Northwest 173 199 8,000  Level Indianapolis Center
10:11AM 37.7569 -83.6681 319° Northwest 173 199 8,000  Level Indianapolis Center
10:12AM 37.7928 -83.7061 320° Northwest 169 194 8,100  Climbing Indianapolis Center
10:13AM 37.8286 -83.7472 318° Northwest 171 197 8,100  Level Indianapolis Center
10:14AM 37.8647 -83.7875 319° Northwest 172 198 8,100  Level Indianapolis Center
10:15AM 37.9019 -83.8278 320° Northwest 174 200 8,100 -60 Level Indianapolis Center
10:16AM 37.9369 -83.8683 318° Northwest 172 198 8,000 -120 Descending Indianapolis Center
10:17AM 37.9803 -83.9167 319° Northwest 175 201 7,900  Descending Indianapolis Center
10:18AM 38.0153 -83.9569 318° Northwest 173 199 8,000  Climbing Indianapolis Center
10:19AM 38.0514 -83.9953 320° Northwest 171 197 8,000  Level Indianapolis Center
10:20AM 38.0883 -84.0344 320° Northwest 172 198 8,000 -60 Level Indianapolis Center
10:21AM 38.1233 -84.0756 317° Northwest 170 196 7,900  Descending Indianapolis Center
10:22AM 38.1647 -84.1233 318° Northwest 171 197 8,000  Climbing Indianapolis Center
10:23AM 38.2006 -84.1642 318° Northwest 172 198 7,900  Descending Indianapolis Center
10:24AM 38.2369 -84.2039 319° Northwest 172 198 8,000  Climbing Indianapolis Center
10:25AM 38.2725 -84.2447 318° Northwest 171 197 8,000  Level Indianapolis Center
10:26AM 38.3069 -84.2842 318° Northwest 169 194 8,000  Level Indianapolis Center
10:27AM 38.3450 -84.3206 323° Northwest 170 196 8,000 -60 Level Indianapolis Center
10:28AM 38.3886 -84.3594 325° Northwest 167 192 7,900  Descending Indianapolis Center
10:29AM 38.4208 -84.3964 318° Northwest 160 184 8,000  Climbing Indianapolis Center
10:30AM 38.4522 -84.4375 314° West 159 183 8,000  Level Indianapolis Center
10:31AM 38.4833 -84.4797 313° West 163 188 8,000 -60 Level Indianapolis Center
10:33AM 38.5164 -84.5200 316° Northwest 163 188 7,900  Descending Indianapolis Center
10:34AM 38.5536 -84.5672 315° West 162 186 8,000  Climbing Indianapolis Center
10:35AM 38.5869 -84.6081 316° Northwest 164 189 8,000 -60 Level Indianapolis Center
10:36AM 38.6208 -84.6464 319° Northwest 163 188 7,900  Descending Indianapolis Center
10:37AM 38.6564 -84.6875 318° Northwest 160 184 8,000  Climbing Indianapolis Center
10:38AM 38.6828 -84.7181 318° Northwest 160 184 7,900  Descending Indianapolis Center
10:39AM 38.7247 -84.7608 321° Northwest 161 185 8,000  Climbing Indianapolis Center
10:40AM 38.7589 -84.7972 320° Northwest 161 185 8,000  Level Indianapolis Center
10:41AM 38.7906 -84.8339 318° Northwest 157 181 8,000  Level Indianapolis Center
10:42AM 38.8233 -84.8694 320° Northwest 156 180 8,000  Level Indianapolis Center
10:43AM 38.8656 -84.9119 322° Northwest 161 185 8,000  Level Indianapolis Center
10:44AM 38.8969 -84.9503 316° Northwest 158 182 8,000  Level Indianapolis Center
10:45AM 38.9264 -84.9850 317° Northwest 156 180 8,000  Level Indianapolis Center
10:46AM 38.9617 -85.0206 322° Northwest 153 176 8,000 -60 Level Indianapolis Center
10:47AM 38.9892 -85.0611 311° West 151 174 7,900 -60 Descending Indianapolis Center
10:48AM 39.0164 -85.1014 311° West 150 173 7,900  Level Indianapolis Center
10:49AM 39.0514 -85.1450 316° Northwest 147 169 8,000  Climbing Indianapolis Center
10:50AM 39.0831 -85.1803 319° Northwest 149 171 7,900  Descending Indianapolis Center
10:51AM 39.1142 -85.2172 317° Northwest 152 175 8,000  Climbing Indianapolis Center
10:52AM 39.1481 -85.2547 319° Northwest 160 184 7,900 -60 Descending Indianapolis Center
10:53AM 39.1797 -85.2911 318° Northwest 155 178 7,900  Level Indianapolis Center
10:54AM 39.2119 -85.3272 319° Northwest 154 177 7,900  Level Indianapolis Center
10:55AM 39.2506 -85.3747 316° Northwest 160 184 7,900  Level Indianapolis Center
10:56AM 39.2822 -85.4125 317° Northwest 156 180 8,000  Climbing Indianapolis Center
10:57AM 39.3153 -85.4508 318° Northwest 160 184 8,000  Level Indianapolis Center
10:58AM 39.3492 -85.4894 319° Northwest 163 188 8,000  Level Indianapolis Center
10:59AM 39.3808 -85.5264 318° Northwest 156 180 8,000  Level Indianapolis Center
11:00AM 39.4128 -85.5642 318° Northwest 156 180 8,000  Level Indianapolis Center
11:01AM 39.4450 -85.6044 316° Northwest 159 183 8,000 -300 Level Indianapolis Center
11:02AM 39.4836 -85.6481 319° Northwest 156 180 7,500 -540 Descending Indianapolis Center
11:03AM 39.5192 -85.6914 317° Northwest 168 193 7,000 -540 Descending Indianapolis Center
11:04AM 39.5539 -85.7347 316° Northwest 173 199 6,500 -480 Descending Indianapolis Center
11:05AM 39.5908 -85.7764 319° Northwest 175 201 6,100 -540 Descending Indianapolis Center
11:07AM 39.5972 -85.8314 279° West 167 192 5,500 -540 Descending Indianapolis Center
11:08AM 39.5992 -85.8881 273° West 160 184 5,000 -540 Descending Indianapolis Center
11:09AM 39.6006 -85.9536 272° West 155 178 4,400 -540 Descending Indianapolis Center
11:10AM 39.5989 -86.0086 268° West 154 177 3,900 -240 Descending Indianapolis Center
11:11AM 39.5986 -86.0611 270° West 150 173 4,000  Climbing Indianapolis Center
11:12AM 39.6075 -86.1069 284° West 144 166 4,000 -60 Level Indianapolis Center
11:13AM 39.6408 -86.1406 322° Northwest 150 173 3,900 -120 Descending Indianapolis Center
11:13AM 39.6500 -86.1500 322° Northwest 147 169 3,900 60 Level Indianapolis TRACON
11:14AM 39.6833 -86.2000 311° West 143 165 4,000  Climbing Indianapolis TRACON
11:15AM 39.7000 -86.2333 303° West 144 166 4,000 -60 Level Indianapolis TRACON
11:16AM 39.7333 -86.2667 322° Northwest 145 167 3,900 -60 Descending Indianapolis TRACON
11:17AM 39.7667 -86.3167 311° West 145 167 3,900  Level Indianapolis TRACON